Time,TemperatureF,DewpointF,PressureIn,WindDirection,WindDirectionDegrees,WindSpeedMPH,WindSpeedGustMPH,Humidity,HourlyPrecipIn,Conditions,Clouds,dailyrainin,SoftwareType,DateUTC
2013-08-09 14:46:00,77.3,62.1,29.96,WSW,246,7.0,14.0,59,0.00,,,0.00,WUHU216DAVISVP2,2013-08-09 18:46:00,
2013-08-09 14:51:00,77.5,60.8,29.97,WSW,240,11.0,14.0,56,0.00,,,0.00,WUHU216DAVISVP2,2013-08-09 18:51:00,
2013-08-09 14:56:00,77.5,59.2,29.96,SW,228,0.0,14.0,53,0.00,,,0.00,WUHU216DAVISVP2,2013-08-09 18:56:00,
2013-08-09 15:01:00,77.9,60.1,29.97,SW,229,6.0,14.0,54,0.00,,,0.00,WUHU216DAVISVP2,2013-08-09 19:01:00,
2013-08-09 15:06:00,78.2,60.2,29.96,NW,304,9.0,14.0,54,0.00,,,0.00,WUHU216DAVISVP2,2013-08-09 19:06:00,
2013-08-09 15:13:00,78.1,60.1,29.97,WSW,242,4.0,12.0,54,0.00,,,0.00,WUHU216DAVISVP2,2013-08-09 19:13:00,
2013-08-09 15:23:00,78.3,61.0,29.96,SSW,200,5.0,13.0,55,0.00,,,0.00,WUHU216DAVISVP2,2013-08-09 19:23:00,
2013-08-09 15:28:00,78.4,60.4,29.96,SSW,195,6.0,13.0,54,0.00,,,0.00,WUHU216DAVISVP2,2013-08-09 19:28:00,
2013-08-09 15:33:00,78.5,62.2,29.96,West,269,6.0,13.0,57,0.00,,,0.00,WUHU216DAVISVP2,2013-08-09 19:33:00,
2013-08-09 15:38:00,78.2,61.4,29.95,NE,56,1.0,13.0,56,0.00,,,0.00,WUHU216DAVISVP2,2013-08-09 19:38:00,
2013-08-09 15:43:00,78.4,61.6,29.95,WNW,290,4.0,11.0,56,0.00,,,0.00,WUHU216DAVISVP2,2013-08-09 19:43:00,
2013-08-09 15:48:00,78.6,62.8,29.95,SW,236,5.0,11.0,58,0.00,,,0.00,WUHU216DAVISVP2,2013-08-09 19:48:00,
2013-08-09 15:53:00,79.4,63.8,29.95,South,191,8.0,12.0,59,0.00,,,0.00,WUHU216DAVISVP2,2013-08-09 19:53:00,
2013-08-09 15:58:00,79.3,64.0,29.95,SW,234,4.0,12.0,59,0.00,,,0.00,WUHU216DAVISVP2,2013-08-09 19:58:00,
2013-08-09 16:03:00,79.2,63.9,29.95,West,269,7.0,12.0,59,0.00,,,0.00,WUHU216DAVISVP2,2013-08-09 20:03:00,
2013-08-09 16:08:00,79.2,63.6,29.95,WNW,302,4.0,11.0,59,0.00,,,0.00,WUHU216DAVISVP2,2013-08-09 20:08:00,
2013-08-09 16:13:00,79.2,62.7,29.95,WSW,248,8.0,10.0,57,0.00,,,0.00,WUHU216DAVISVP2,2013-08-09 20:13:00,
2013-08-09 16:19:00,79.4,61.8,29.95,SW,222,10.0,13.0,55,0.00,,,0.00,WUHU216DAVISVP2,2013-08-09 20:19:00,
2013-08-09 16:24:00,79.5,63.9,29.95,West,275,7.0,13.0,59,0.00,,,0.00,WUHU216DAVISVP2,2013-08-09 20:24:00,
2013-08-09 16:29:00,79.1,61.0,29.95,SW,234,8.0,13.0,54,0.00,,,0.00,WUHU216DAVISVP2,2013-08-09 20:29:00,
2013-08-09 16:34:00,79.1,62.3,29.95,West,269,7.0,13.0,56,0.00,,,0.00,WUHU216DAVISVP2,2013-08-09 20:34:00,
2013-08-09 16:39:00,80.0,61.9,29.95,SSW,199,7.0,13.0,54,0.00,,,0.00,WUHU216DAVISVP2,2013-08-09 20:39:00,
2013-08-09 16:44:00,79.7,61.1,29.95,SW,229,6.0,15.0,53,0.00,,,0.00,WUHU216DAVISVP2,2013-08-09 20:44:00,
2013-08-09 16:49:00,79.3,61.4,29.95,SW,234,7.0,15.0,54,0.00,,,0.00,WUHU216DAVISVP2,2013-08-09 20:49:00,
2013-08-09 16:54:00,79.2,61.6,29.94,WSW,246,9.0,15.0,55,0.00,,,0.00,WUHU216DAVISVP2,2013-08-09 20:54:00,
2013-08-09 16:59:00,79.8,61.9,29.95,SW,234,11.0,14.0,54,0.00,,,0.00,WUHU216DAVISVP2,2013-08-09 20:59:00,
2013-08-09 17:04:00,79.6,62.2,29.95,South,185,1.0,12.0,55,0.00,,,0.00,WUHU216DAVISVP2,2013-08-09 21:04:00,
2013-08-09 17:09:00,79.4,62.5,29.95,West,263,7.0,12.0,56,0.00,,,0.00,WUHU216DAVISVP2,2013-08-09 21:09:00,
2013-08-09 17:14:00,79.3,64.0,29.95,West,259,8.0,12.0,59,0.00,,,0.00,WUHU216DAVISVP2,2013-08-09 21:14:00,
2013-08-09 17:19:00,79.1,62.8,29.95,West,271,9.0,12.0,57,0.00,,,0.00,WUHU216DAVISVP2,2013-08-09 21:19:00,
2013-08-09 17:24:00,79.0,62.7,29.95,WSW,256,7.0,12.0,57,0.00,,,0.00,WUHU216DAVISVP2,2013-08-09 21:24:00,
2013-08-09 17:29:00,78.7,61.4,29.95,WNW,288,8.0,12.0,55,0.00,,,0.00,WUHU216DAVISVP2,2013-08-09 21:29:00,
2013-08-09 17:34:00,78.8,62.5,29.95,WSW,241,5.0,12.0,57,0.00,,,0.00,WUHU216DAVISVP2,2013-08-09 21:34:00,
2013-08-09 17:39:00,78.7,62.4,29.95,SW,220,6.0,11.0,57,0.00,,,0.00,WUHU216DAVISVP2,2013-08-09 21:39:00,
2013-08-09 17:45:00,79.1,62.8,29.94,SW,223,6.0,10.0,57,0.00,,,0.00,WUHU216DAVISVP2,2013-08-09 21:45:00,
2013-08-09 17:50:00,79.1,62.8,29.95,WSW,238,8.0,11.0,57,0.00,,,0.00,WUHU216DAVISVP2,2013-08-09 21:50:00,
2013-08-09 17:55:00,78.8,63.0,29.95,West,267,7.0,11.0,58,0.00,,,0.00,WUHU216DAVISVP2,2013-08-09 21:55:00,
2013-08-09 18:00:00,78.6,62.3,29.95,WSW,255,7.0,11.0,57,0.00,,,0.00,WUHU216DAVISVP2,2013-08-09 22:00:00,
2013-08-09 18:05:00,78.5,62.7,29.95,WSW,255,9.0,11.0,58,0.00,,,0.00,WUHU216DAVISVP2,2013-08-09 22:05:00,
2013-08-09 18:10:00,78.6,63.3,29.95,West,271,5.0,11.0,59,0.00,,,0.00,WUHU216DAVISVP2,2013-08-09 22:10:00,
2013-08-09 18:15:00,78.5,63.2,29.95,West,263,6.0,12.0,59,0.00,,,0.00,WUHU216DAVISVP2,2013-08-09 22:15:00,
2013-08-09 18:20:00,78.1,62.8,29.95,West,261,4.0,12.0,59,0.00,,,0.00,WUHU216DAVISVP2,2013-08-09 22:20:00,
2013-08-09 18:25:00,77.9,63.6,29.95,West,260,7.0,12.0,61,0.00,,,0.00,WUHU216DAVISVP2,2013-08-09 22:25:00,
2013-08-09 18:30:00,78.2,64.3,29.94,SW,229,1.0,12.0,62,0.00,,,0.00,WUHU216DAVISVP2,2013-08-09 22:30:00,
2013-08-09 18:35:00,78.3,64.4,29.95,South,190,5.0,9.0,62,0.00,,,0.00,WUHU216DAVISVP2,2013-08-09 22:35:00,
2013-08-09 18:40:00,78.0,64.6,29.95,SW,221,3.0,9.0,63,0.00,,,0.00,WUHU216DAVISVP2,2013-08-09 22:40:00,
2013-08-09 18:45:00,77.9,65.0,29.95,WSW,240,7.0,8.0,64,0.00,,,0.00,WUHU216DAVISVP2,2013-08-09 22:45:00,
2013-08-09 18:50:00,77.6,65.1,29.94,SW,229,0.0,8.0,65,0.00,,,0.00,WUHU216DAVISVP2,2013-08-09 22:50:00,
2013-08-09 18:55:00,77.4,65.4,29.95,WSW,250,7.0,8.0,66,0.00,,,0.00,WUHU216DAVISVP2,2013-08-09 22:55:00,
2013-08-09 19:00:00,77.5,64.6,29.95,WSW,238,3.0,8.0,64,0.00,,,0.00,WUHU216DAVISVP2,2013-08-09 23:00:00,
2013-08-09 19:06:00,77.9,64.1,29.95,West,261,5.0,10.0,62,0.00,,,0.00,WUHU216DAVISVP2,2013-08-09 23:06:00,
2013-08-09 19:11:00,77.7,64.8,29.95,West,265,7.0,10.0,64,0.00,,,0.00,WUHU216DAVISVP2,2013-08-09 23:11:00,
2013-08-09 19:16:00,77.6,64.2,29.95,WSW,242,5.0,10.0,63,0.00,,,0.00,WUHU216DAVISVP2,2013-08-09 23:16:00,
2013-08-09 19:21:00,77.6,63.8,29.95,WSW,241,7.0,10.0,62,0.00,,,0.00,WUHU216DAVISVP2,2013-08-09 23:21:00,
2013-08-09 19:26:00,77.4,64.5,29.95,SW,223,4.0,9.0,64,0.00,,,0.00,WUHU216DAVISVP2,2013-08-09 23:26:00,
2013-08-09 19:31:00,77.2,63.9,29.95,WSW,246,4.0,9.0,63,0.00,,,0.00,WUHU216DAVISVP2,2013-08-09 23:31:00,
2013-08-09 19:36:00,76.8,63.7,29.95,SW,236,1.0,9.0,64,0.00,,,0.00,WUHU216DAVISVP2,2013-08-09 23:36:00,
2013-08-09 19:41:00,76.4,64.0,29.95,SW,233,2.0,9.0,65,0.00,,,0.00,WUHU216DAVISVP2,2013-08-09 23:41:00,
2013-08-09 19:47:00,76.2,64.2,29.95,WSW,247,2.0,9.0,66,0.00,,,0.00,WUHU216DAVISVP2,2013-08-09 23:47:00,
2013-08-09 19:52:00,76.0,64.2,29.95,WSW,247,2.0,7.0,67,0.00,,,0.00,WUHU216DAVISVP2,2013-08-09 23:52:00,
2013-08-09 19:57:00,75.7,64.6,29.95,WSW,247,0.0,7.0,68,0.00,,,0.00,WUHU216DAVISVP2,2013-08-09 23:57:00,
2013-08-09 20:02:00,75.5,64.8,29.95,WSW,247,2.0,5.0,69,0.00,,,0.00,WUHU216DAVISVP2,2013-08-10 00:02:00,
2013-08-09 20:07:00,75.3,64.4,29.95,WSW,247,2.0,3.0,69,0.00,,,0.00,WUHU216DAVISVP2,2013-08-10 00:07:00,
2013-08-09 20:12:00,75.0,64.5,29.95,WSW,247,0.0,4.0,70,0.00,,,0.00,WUHU216DAVISVP2,2013-08-10 00:12:00,
2013-08-09 20:17:00,74.8,65.0,29.96,WSW,247,0.0,4.0,71,0.00,,,0.00,WUHU216DAVISVP2,2013-08-10 00:17:00,
2013-08-09 20:22:00,74.4,66.1,29.96,WSW,247,0.0,4.0,75,0.00,,,0.00,WUHU216DAVISVP2,2013-08-10 00:22:00,
2013-08-09 20:27:00,73.9,65.6,29.96,WSW,247,0.0,4.0,75,0.00,,,0.00,WUHU216DAVISVP2,2013-08-10 00:27:00,
2013-08-09 20:32:00,73.6,65.9,29.96,WSW,247,0.0,1.0,77,0.00,,,0.00,WUHU216DAVISVP2,2013-08-10 00:32:00,
2013-08-09 20:37:00,73.0,65.0,29.96,WSW,247,0.0,1.0,76,0.00,,,0.00,WUHU216DAVISVP2,2013-08-10 00:37:00,
2013-08-09 20:42:00,72.5,64.5,29.97,WSW,247,0.0,1.0,76,0.00,,,0.00,WUHU216DAVISVP2,2013-08-10 00:42:00,
2013-08-09 20:47:00,72.2,65.1,29.96,WSW,247,0.0,0.0,78,0.00,,,0.00,WUHU216DAVISVP2,2013-08-10 00:47:00,
2013-08-09 20:52:00,71.9,65.5,29.97,WSW,247,0.0,0.0,80,0.00,,,0.00,WUHU216DAVISVP2,2013-08-10 00:52:00,
2013-08-09 20:57:00,71.4,65.6,29.97,WSW,247,0.0,0.0,82,0.00,,,0.00,WUHU216DAVISVP2,2013-08-10 00:57:00,
2013-08-09 21:02:00,70.9,65.2,29.97,WSW,247,0.0,0.0,82,0.00,,,0.00,WUHU216DAVISVP2,2013-08-10 01:02:00,
2013-08-09 21:07:00,70.2,64.4,29.97,WSW,247,0.0,0.0,82,0.00,,,0.00,WUHU216DAVISVP2,2013-08-10 01:07:00,
2013-08-09 21:12:00,69.9,64.5,29.97,WSW,247,0.0,0.0,83,0.00,,,0.00,WUHU216DAVISVP2,2013-08-10 01:12:00,
2013-08-09 21:18:00,69.8,64.5,29.97,WSW,247,0.0,1.0,83,0.00,,,0.00,WUHU216DAVISVP2,2013-08-10 01:18:00,
2013-08-09 21:23:00,69.7,64.4,29.97,WSW,247,0.0,1.0,83,0.00,,,0.00,WUHU216DAVISVP2,2013-08-10 01:23:00,
2013-08-09 21:28:00,69.5,64.2,29.97,WSW,247,0.0,1.0,83,0.00,,,0.00,WUHU216DAVISVP2,2013-08-10 01:28:00,
2013-08-09 21:33:00,69.2,64.2,29.97,WSW,247,0.0,1.0,84,0.00,,,0.00,WUHU216DAVISVP2,2013-08-10 01:33:00,
2013-08-09 21:38:00,69.0,64.0,29.98,WSW,247,0.0,0.0,84,0.00,,,0.00,WUHU216DAVISVP2,2013-08-10 01:38:00,
2013-08-09 21:43:00,68.7,64.0,29.98,WSW,247,0.0,0.0,85,0.00,,,0.00,WUHU216DAVISVP2,2013-08-10 01:43:00,
2013-08-09 21:48:00,68.5,63.8,29.98,WSW,247,0.0,0.0,85,0.00,,,0.00,WUHU216DAVISVP2,2013-08-10 01:48:00,
2013-08-09 21:53:00,68.5,63.8,29.98,WSW,247,0.0,0.0,85,0.00,,,0.00,WUHU216DAVISVP2,2013-08-10 01:53:00,
2013-08-09 21:58:00,68.4,63.4,29.99,WSW,247,0.0,0.0,84,0.00,,,0.00,WUHU216DAVISVP2,2013-08-10 01:58:00,
2013-08-09 22:03:00,68.3,63.3,29.98,WSW,247,0.0,0.0,84,0.00,,,0.00,WUHU216DAVISVP2,2013-08-10 02:03:00,
2013-08-09 22:08:00,68.2,63.2,29.98,WSW,247,0.0,0.0,84,0.00,,,0.00,WUHU216DAVISVP2,2013-08-10 02:08:00,
2013-08-09 22:13:00,68.4,63.7,29.98,WSW,247,0.0,0.0,85,0.00,,,0.00,WUHU216DAVISVP2,2013-08-10 02:13:00,
2013-08-09 22:18:00,68.4,63.4,29.98,WSW,247,0.0,0.0,84,0.00,,,0.00,WUHU216DAVISVP2,2013-08-10 02:18:00,
2013-08-09 22:23:00,68.4,63.7,29.99,WSW,247,0.0,0.0,85,0.00,,,0.00,WUHU216DAVISVP2,2013-08-10 02:23:00,
2013-08-09 22:28:00,68.3,64.6,29.98,WSW,247,0.0,0.0,88,0.00,,,0.00,WUHU216DAVISVP2,2013-08-10 02:28:00,
2013-08-09 22:33:00,68.1,64.4,29.98,WSW,247,0.0,0.0,88,0.00,,,0.00,WUHU216DAVISVP2,2013-08-10 02:33:00,
2013-08-09 22:38:00,67.7,63.7,29.98,WSW,247,0.0,0.0,87,0.00,,,0.00,WUHU216DAVISVP2,2013-08-10 02:38:00,
2013-08-09 22:44:00,67.4,63.7,29.98,WSW,247,0.0,0.0,88,0.00,,,0.00,WUHU216DAVISVP2,2013-08-10 02:44:00,
2013-08-09 22:49:00,67.2,63.5,29.99,WSW,247,0.0,0.0,88,0.00,,,0.00,WUHU216DAVISVP2,2013-08-10 02:49:00,
2013-08-09 22:54:00,67.0,63.3,29.99,WSW,247,0.0,0.0,88,0.00,,,0.00,WUHU216DAVISVP2,2013-08-10 02:54:00,
2013-08-09 22:59:00,66.7,63.3,29.99,WSW,247,0.0,0.0,89,0.00,,,0.00,WUHU216DAVISVP2,2013-08-10 02:59:00,
2013-08-09 23:04:00,66.4,63.0,29.99,WSW,247,0.0,0.0,89,0.00,,,0.00,WUHU216DAVISVP2,2013-08-10 03:04:00,
2013-08-09 23:09:00,66.2,62.8,29.99,WSW,247,0.0,0.0,89,0.00,,,0.00,WUHU216DAVISVP2,2013-08-10 03:09:00,
2013-08-09 23:14:00,66.0,62.6,30.00,WSW,247,0.0,0.0,89,0.00,,,0.00,WUHU216DAVISVP2,2013-08-10 03:14:00,
2013-08-09 23:19:00,65.9,62.6,30.00,WSW,247,0.0,0.0,89,0.00,,,0.00,WUHU216DAVISVP2,2013-08-10 03:19:00,
2013-08-09 23:24:00,65.9,62.6,30.00,WSW,247,0.0,0.0,89,0.00,,,0.00,WUHU216DAVISVP2,2013-08-10 03:24:00,
2013-08-09 23:29:00,65.9,63.2,30.00,WSW,247,0.0,0.0,91,0.00,,,0.00,WUHU216DAVISVP2,2013-08-10 03:29:00,
2013-08-09 23:34:00,65.7,63.0,30.00,WSW,247,0.0,0.0,91,0.00,,,0.00,WUHU216DAVISVP2,2013-08-10 03:34:00,
2013-08-09 23:39:00,65.5,62.8,30.00,WSW,247,0.0,0.0,91,0.00,,,0.00,WUHU216DAVISVP2,2013-08-10 03:39:00,
2013-08-09 23:44:00,65.5,63.1,30.00,WSW,247,0.0,0.0,92,0.00,,,0.00,WUHU216DAVISVP2,2013-08-10 03:44:00,
2013-08-09 23:49:00,65.6,63.2,30.00,WSW,247,0.0,0.0,92,0.00,,,0.00,WUHU216DAVISVP2,2013-08-10 03:49:00,
2013-08-09 23:54:00,65.6,63.2,30.00,WSW,247,0.0,0.0,92,0.00,,,0.00,WUHU216DAVISVP2,2013-08-10 03:54:00,
2013-08-09 23:59:00,65.5,63.1,30.00,WSW,247,0.0,0.0,92,0.00,,,0.00,WUHU216DAVISVP2,2013-08-10 03:59:00,